This is the latest recevied weather packets stored in our database for station/object KD4KKF. If no packets are shown the sender has not sent any weather packets the latest 10 day(s).
| Time | Temp. | Humidity | Pressure | Rain* | Wind** | Luminosity | Snow |
|---|---|---|---|---|---|---|---|
| 1777855265 | 14.44° C | 81% | 1016.7 hPa | 0 mm | - | 0 W/m² | - |
| 1777854961 | 15° C | 80% | 1016.7 hPa | 0 mm | - | 3 W/m² | - |
| 1777854658 | 15° C | 79% | 1016.4 hPa | 0 mm | - | 5 W/m² | - |
| 1777854355 | 15° C | 78% | 1016.4 hPa | 0 mm | - | 9 W/m² | - |
| 1777854052 | 15.56° C | 75% | 1016.2 hPa | 0 mm | - | 11 W/m² | - |
| 1777853750 | 15.56° C | 73% | 1016.4 hPa | 0 mm | - | 15 W/m² | - |
| 1777853446 | 16.11° C | 75% | 1016.6 hPa | 0 mm | - | 18 W/m² | - |
| 1777853143 | 16.67° C | 73% | 1016.4 hPa | 0 mm | - | 21 W/m² | - |
| 1777852841 | 17.22° C | 71% | 1016.6 hPa | 0 mm | - | 25 W/m² | - |
| 1777852539 | 17.22° C | 68% | 1016.6 hPa | 0 mm | - | 28 W/m² | - |
| 1777852235 | 17.78° C | 68% | 1016.6 hPa | 0 mm | - | 30 W/m² | - |
| 1777851933 | 18.33° C | 60% | 1016.2 hPa | 0 mm | - | 34 W/m² | - |
| 1777851631 | 18.89° C | 61% | 1016.4 hPa | 0 mm | - | 36 W/m² | - |
| 1777851327 | 19.44° C | 56% | 1016.7 hPa | 0 mm | - | 39 W/m² | - |
| 1777851023 | 19.44° C | 60% | 1016.5 hPa | 0 mm | - | 42 W/m² | - |
| 1777850720 | 20° C | 55% | 1016.4 hPa | 0 mm | - | 45 W/m² | - |
| 1777850418 | 20.56° C | 47% | 1016.6 hPa | 0 mm | - | 50 W/m² | - |
| 1777850116 | 21.11° C | 47% | 1016.6 hPa | 0 mm | - | 50 W/m² | - |
| 1777849812 | 21.11° C | 46% | 1016.6 hPa | 0 mm | - | 147 W/m² | - |
| 1777849509 | 21.11° C | 42% | 1016.8 hPa | 0 mm | - | 158 W/m² | - |
| 1777849206 | 21.67° C | 42% | 1016.9 hPa | 0 mm | - | 179 W/m² | - |
| 1777848903 | 22.22° C | 42% | 1016.8 hPa | 0 mm | - | 197 W/m² | - |
| 1777848598 | 21.67° C | 40% | 1016.8 hPa | 0 mm | - | 217 W/m² | - |
| 1777848295 | 21.67° C | 41% | 1016.9 hPa | 0 mm | - | 238 W/m² | - |
| 1777847993 | 21.67° C | 41% | 1016.8 hPa | 0 mm | - | 251 W/m² | - |
* Rain latest hour (hover to see other rain measurements)
** Current wind speed in m/s (hover to see current wind gust speed)